Temp
-6 -6 -6 -7 -8 -9 -7 -8 -7 -7 -8 -9 -10 -10 -10 -9 -9 -9 -8 -8 -7 -8 -8 -8 -8 -9 -8 -8 -8 -8 -7 -7 -7 -8 -8 -8 -8 -8 -8 -8 -8 -7 -8
-6 -6 -7 -7 -7 -7 -8 -8 -8 -7 -9 -9 -10 -11 -9 -9 -11 -9 -8 -8 -8 -8 -8 -8 -8 -9 -9 -9 -8 -8 -8 -7 -7 -8 -7 -8 -8 -8 -8 -8 -8 -8 -8
-6 -6 -6 -7 -7 -7 -7 -8 -7 -8 -9 -9 -9 -9 -9 -10 -9 -8 -8 -9 -9 -8 -8 -8 -8 -8 -9 -9 -9 -9 -8 -8 -8 -8 -8 -8 -8 -8 -8 -8 -8 -8 -8
-6 -6 -6 -6 -7 -7 -7 -7 -8 -9 -9 -9 -9 -9 -9 -9 -9 -9 -9 -9 -9 -9 -9 -8 -9 -9 -10 -9 -9 -9 -9 -9 -8 -8 -8 -8 -8 -8 -8 -7 -8 -7 -8
-5 -6 -6 -6 -6 -6 -7 -7 -8 -9 -9 -8 -8 -9 -9 -9 -10 -8 -9 -9 -9 -10 -9 -10 -9 -10 -10 -10 -10 -9 -9 -9 -8 -8 -8 -8 -8 -8 -7 -7 -7 -7 -7
-5 -5 -6 -6 -6 -7 -7 -7 -7 -8 -8 -9 -9 -9 -8 -9 -10 -9 -9 -9 -9 -10 -10 -10 -10 -10 -11 -10 -10 -10 -9 -9 -9 -8 -8 -8 -8 -8 -7 -7 -7 -7 -7
-6 -6 -6 -6 -7 -7 -7 -7 -8 -8 -9 -9 -9 -9 -9 -9 -9 -10 -9 -9 -10 -10 -10 -11 -10 -10 -11 -11 -11 -10 -10 -10 -9 -8 -9 -8 -8 -7 -7 -7 -7 -7 -8
-7 -7 -7 -7 -7 -8 -8 -9 -9 -9 -9 -9 -9 -9 -9 -9 -10 -10 -10 -10 -10 -10 -10 -10 -10 -10 -10 -11 -11 -10 -10 -10 -10 -9 -9 -9 -9 -8 -8 -8 -8 -8 -9
-7 -7 -8 -8 -9 -9 -9 -9 -9 -9 -10 -10 -10 -10 -10 -10 -11 -11 -10 -10 -10 -10 -10 -10 -10 -11 -11 -11 -11 -10 -11 -11 -10 -10 -9 -9 -9 -8 -8 -8 -9 -8 -9
-9 -9 -9 -10 -10 -10 -10 -10 -10 -10 -10 -10 -10 -10 -11 -11 -11 -10 -10 -10 -11 -10 -10 -10 -10 -11 -11 -12 -11 -11 -11 -11 -10 -10 -10 -10 -9 -9 -9 -9 -9 -9 -9
-10 -10 -11 -11 -12 -12 -11 -11 -11 -11 -10 -11 -11 -11 -11 -11 -11 -10 -10 -10 -11 -10 -10 -11 -11 -11 -12 -12 -11 -11 -11 -10 -11 -10 -10 -10 -10 -10 -9 -9 -9 -9 -9
-10 -11 -11 -13 -13 -13 -13 -11 -11 -11 -11 -11 -11 -11 -11 -11 -11 -11 -10 -10 -11 -11 -11 -11 -12 -12 -12 -12 -11 -11 -11 -11 -11 -11 -11 -11 -11 -10 -10 -10 -10 -10 -10
-11 -12 -12 -12 -13 -13 -12 -12 -11 -11 -11 -11 -11 -10 -11 -11 -11 -11 -11 -11 -11 -12 -12 -12 -11 -11 -11 -12 -11 -11 -11 -11 -11 -10 -11 -11 -11 -11 -11 -11 -11 -11 -11
-11 -12 -12 -12 -13 -13 -13 -12 -12 -11 -11 -11 -11 -11 -11 -11 -10 -10 -11 -11 -11 -11 -12 -12 -12 -11 -11 -11 -11 -11 -11 -11 -11 -11 -11 -11 -11 -11 -11 -11 -11 -11 -11
-11 -11 -12 -12 -13 -13 -13 -12 -12 -12 -11 -11 -11 -11 -11 -11 -10 -10 -11 -11 -11 -11 -11 -12 -11 -11 -11 -12 -11 -11 -11 -11 -11 -11 -11 -11 -11 -11 -11 -11 -12 -11 -11
-11 -12 -12 -12 -13 -13 -13 -13 -12 -11 -11 -11 -11 -11 -11 -11 -11 -11 -11 -11 -11 -11 -12 -12 -11 -11 -11 -11 -11 -11 -11 -11 -11 -11 -11 -11 -11 -11 -11 -11 -11 -11 -11
-11 -12 -12 -12 -12 -12 -12 -12 -12 -11 -11 -10 -11 -10 -11 -11 -11 -11 -11 -11 -12 -12 -12 -11 -11 -11 -11 -11 -11 -11 -11 -11 -11 -10 -11 -12 -11 -11 -11 -11 -11 -11 -11
-11 -11 -12 -12 -12 -12 -12 -12 -12 -11 -11 -11 -10 -11 -11 -11 -11 -11 -11 -11 -11 -12 -12 -12 -12 -11 -11 -11 -11 -11 -11 -11 -11 -11 -11 -12 -11 -11 -11 -11 -11 -11 -10
-11 -11 -12 -12 -12 -12 -12 -12 -12 -12 -11 -10 -11 -11 -11 -11 -11 -11 -11 -11 -11 -11 -12 -12 -11 -12 -11 -11 -11 -11 -11 -11 -11 -11 -11 -11 -11 -11 -11 -11 -11 -11 -10
-12 -12 -12 -12 -12 -12 -12 -12 -12 -12 -12 -11 -11 -11 -11 -11 -11 -11 -11 -11 -11 -11 -11 -11 -11 -11 -11 -11 -11 -11 -11 -11 -11 -11 -11 -11 -11 -11 -11 -11 -11 -10 -10
-12 -12 -12 -12 -12 -12 -12 -12 -12 -12 -12 -11 -11 -11 -11 -11 -11 -11 -11 -11 -11 -11 -11 -11 -11 -11 -11 -11 -11 -11 -11 -12 -12 -12 -11 -11 -11 -11 -11 -11 -11 -10 -11
-12 -12 -12 -12 -12 -12 -12 -12 -12 -12 -12 -12 -12 -12 -12 -11 -11 -11 -11 -11 -11 -12 -11 -11 -11 -11 -12 -12 -12 -12 -12 -12 -12 -12 -12 -12 -11 -11 -11 -11 -11 -11 -11
-12 -12 -12 -12 -12 -12 -12 -12 -12 -12 -12 -12 -11 -12 -12 -12 -11 -11 -12 -11 -11 -11 -11 -11 -11 -11 -11 -12 -12 -12 -12 -12 -12 -12 -12 -12 -12 -11 -11 -11 -11 -11 -11
-12 -12 -12 -12 -12 -12 -12 -12 -12 -12 -12 -12 -12 -11 -12 -11 -11 -12 -12 -12 -11 -11 -11 -11 -11 -11 -12 -12 -12 -12 -12 -13 -12 -12 -12 -12 -12 -11 -11 -11 -11 -11 -11
-13 -12 -13 -13 -12 -12 -12 -12 -12 -12 -12 -12 -12 -12 -12 -12 -12 -11 -12 -12 -12 -12 -12 -11 -11 -11 -11 -11 -11 -12 -12 -12 -12 -13 -13 -12 -12 -11 -11 -12 -12 -12 -11
-13 -13 -13 -13 -13 -13 -13 -12 -12 -12 -12 -12 -12 -12 -12 -12 -12 -12 -12 -12 -12 -12 -12 -12 -12 -11 -11 -11 -11 -11 -12 -11 -11 -11 -12 -12 -12 -12 -12 -12 -12 -12 -12
Height
5883 5877 5870 5866 5858 5848 5836 5834 5837 5832 5820 5818 5821 5821 5821 5824 5819 5815 5812 5811 5808 5805 5801 5797 5795 5791 5791 5791 5792 5793 5794 5795 5797 5804 5802 5803 5803 5807 5810 5810 5812 5814 5814
5872 5863 5857 5854 5846 5841 5835 5832 5825 5821 5813 5807 5811 5806 5809 5809 5806 5802 5799 5797 5793 5790 5786 5781 5780 5778 5776 5777 5777 5778 5780 5782 5783 5790 5789 5791 5793 5794 5797 5798 5801 5802 5804
5861 5856 5848 5840 5837 5832 5827 5820 5815 5808 5801 5800 5788 5791 5798 5796 5794 5791 5787 5781 5777 5773 5770 5766 5763 5759 5762 5762 5762 5763 5766 5768 5769 5773 5778 5777 5780 5783 5785 5786 5788 5790 5794
5850 5844 5835 5830 5824 5818 5810 5805 5798 5795 5793 5783 5779 5782 5785 5786 5783 5780 5771 5766 5762 5759 5754 5749 5743 5739 5744 5747 5750 5751 5753 5753 5756 5758 5763 5765 5766 5771 5772 5773 5776 5780 5781
5841 5835 5828 5820 5812 5806 5798 5793 5790 5786 5779 5770 5774 5769 5774 5771 5770 5765 5757 5752 5749 5747 5742 5737 5733 5732 5733 5735 5737 5739 5739 5741 5743 5745 5747 5751 5754 5758 5759 5759 5762 5765 5766
5828 5823 5816 5809 5801 5793 5786 5781 5774 5771 5767 5765 5765 5764 5759 5756 5754 5749 5742 5737 5735 5733 5731 5725 5724 5722 5724 5724 5726 5728 5729 5729 5731 5732 5735 5738 5741 5744 5744 5746 5749 5750 5752
5811 5805 5800 5794 5788 5781 5773 5766 5761 5756 5755 5753 5750 5746 5743 5742 5738 5731 5726 5722 5721 5721 5717 5712 5711 5713 5714 5714 5716 5718 5718 5718 5720 5721 5724 5727 5730 5730 5730 5731 5736 5738 5740
5794 5788 5781 5774 5768 5762 5754 5749 5746 5741 5738 5736 5734 5732 5729 5724 5719 5715 5711 5710 5708 5705 5701 5696 5697 5703 5704 5706 5707 5708 5708 5709 5711 5713 5716 5717 5719 5719 5718 5720 5725 5729 5734
5771 5766 5759 5752 5748 5742 5738 5733 5728 5724 5721 5716 5713 5712 5710 5709 5705 5701 5698 5698 5696 5692 5687 5684 5686 5691 5694 5696 5699 5700 5700 5703 5704 5706 5707 5708 5709 5710 5712 5712 5715 5722 5726
5755 5747 5739 5731 5726 5723 5720 5716 5713 5708 5704 5700 5699 5696 5695 5693 5691 5688 5684 5684 5682 5680 5679 5678 5679 5681 5685 5689 5690 5691 5694 5696 5698 5698 5699 5700 5701 5702 5704 5706 5709 5714 5718
5741 5730 5720 5712 5708 5705 5704 5701 5699 5696 5693 5689 5685 5683 5680 5678 5676 5673 5669 5671 5670 5670 5669 5669 5671 5674 5678 5681 5682 5685 5688 5689 5691 5693 5694 5695 5696 5697 5698 5701 5704 5705 5712
5725 5715 5704 5698 5695 5694 5692 5690 5687 5684 5682 5679 5675 5673 5669 5666 5664 5661 5658 5659 5659 5661 5660 5661 5662 5666 5668 5673 5675 5679 5682 5684 5687 5690 5691 5691 5693 5693 5696 5697 5702 5706 5710
5712 5702 5693 5687 5682 5681 5681 5679 5675 5672 5669 5666 5662 5659 5657 5654 5653 5650 5648 5649 5651 5652 5654 5655 5655 5658 5662 5666 5670 5674 5676 5679 5681 5683 5686 5689 5690 5694 5696 5699 5702 5706 5710
5706 5698 5690 5683 5679 5676 5673 5669 5667 5662 5658 5654 5650 5647 5644 5642 5639 5639 5639 5642 5643 5645 5647 5649 5650 5651 5655 5659 5664 5669 5671 5674 5677 5679 5683 5686 5688 5691 5694 5698 5701 5705 5708
5700 5694 5687 5679 5674 5673 5669 5663 5658 5653 5649 5645 5641 5638 5636 5634 5634 5635 5634 5636 5637 5639 5642 5644 5643 5645 5649 5655 5659 5663 5667 5670 5673 5676 5679 5681 5685 5688 5691 5695 5699 5702 5706
5696 5690 5683 5677 5672 5668 5664 5660 5651 5646 5642 5636 5633 5631 5630 5629 5630 5631 5632 5632 5634 5636 5639 5639 5640 5642 5643 5650 5654 5659 5662 5665 5668 5672 5674 5678 5681 5685 5688 5692 5695 5699 5703
5692 5686 5679 5673 5668 5664 5660 5654 5649 5642 5635 5630 5628 5625 5624 5626 5627 5627 5628 5629 5631 5633 5634 5636 5638 5640 5643 5646 5650 5654 5658 5659 5657 5667 5669 5673 5676 5681 5685 5689 5692 5696 5700
5688 5680 5675 5670 5665 5660 5654 5649 5643 5636 5632 5628 5625 5622 5622 5623 5624 5625 5624 5626 5628 5630 5632 5634 5636 5638 5641 5643 5647 5650 5653 5655 5659 5662 5665 5670 5673 5677 5681 5685 5689 5692 5696
5684 5678 5672 5667 5661 5656 5651 5646 5641 5636 5628 5624 5623 5618 5621 5622 5622 5622 5622 5623 5625 5626 5628 5630 5633 5635 5638 5640 5643 5646 5649 5652 5655 5659 5663 5667 5669 5673 5676 5680 5684 5688 5691
5679 5673 5669 5664 5659 5654 5649 5645 5640 5635 5629 5625 5622 5620 5621 5621 5621 5620 5621 5621 5622 5623 5625 5627 5630 5632 5634 5636 5639 5641 5644 5647 5651 5654 5658 5662 5665 5667 5671 5675 5679 5683 5686
5676 5671 5666 5662 5657 5652 5647 5642 5639 5635 5631 5626 5623 5619 5617 5617 5617 5617 5617 5616 5617 5619 5621 5622 5625 5628 5630 5632 5633 5636 5639 5641 5644 5647 5651 5655 5659 5662 5665 5668 5671 5675 5679
5673 5668 5664 5659 5654 5650 5645 5641 5637 5633 5629 5625 5622 5619 5616 5615 5614 5613 5613 5611 5612 5614 5616 5617 5619 5621 5624 5626 5628 5630 5633 5635 5638 5640 5643 5647 5651 5654 5657 5660 5663 5667 5670
5667 5663 5658 5653 5649 5645 5641 5637 5634 5630 5627 5624 5621 5619 5616 5614 5611 5610 5610 5609 5609 5609 5609 5611 5612 5614 5617 5619 5622 5624 5627 5630 5631 5633 5636 5638 5641 5645 5649 5652 5655 5658 5662
5661 5656 5652 5647 5643 5639 5635 5632 5628 5625 5623 5620 5617 5615 5613 5610 5609 5606 5605 5604 5604 5603 5603 5604 5605 5607 5609 5611 5613 5615 5618 5619 5622 5626 5628 5630 5633 5635 5638 5642 5646 5649 5653
5652 5649 5645 5641 5637 5633 5629 5625 5622 5619 5616 5614 5610 5609 5607 5605 5603 5601 5599 5597 5598 5597 5598 5597 5597 5598 5599 5601 5603 5605 5607 5610 5612 5614 5616 5619 5622 5625 5627 5631 5634 5637 5640
5644 5639 5635 5631 5627 5624 5621 5617 5614 5611 5608 5605 5602 5600 5598 5597 5595 5594 5592 5591 5590 5590 5590 5590 5590 5590 5588 5588 5591 5593 5596 5597 5600 5602 5605 5607 5609 5612 5614 5618 5621 5624 5627
Wind_Speed
42 45 47 43 52 53 53 50 36 37 52 34 41 40 50 50 42 48 51 47 44 45 45 46 46 48 49 49 48 47 47 47 45 37 40 42 44 41 38 39 36 37 35
45 40 31 40 45 45 46 48 42 44 45 46 53 49 45 43 47 52 52 51 48 50 49 46 45 49 48 49 49 49 48 46 46 40 41 42 44 43 42 41 40 39 36
42 43 47 47 42 43 44 42 44 48 40 49 63 50 51 47 46 54 52 49 47 50 49 50 53 58 53 47 48 47 47 47 45 43 42 44 46 45 45 43 43 39 38
50 47 48 46 46 45 46 45 42 39 45 38 46 47 51 45 52 51 50 47 47 51 50 49 45 41 42 44 44 44 43 45 44 42 41 44 47 44 46 45 43 41 43
51 50 49 50 51 53 51 49 41 45 41 52 48 33 46 39 44 48 49 48 49 47 46 40 35 35 36 40 40 42 43 42 42 43 44 42 43 43 45 46 44 43 44
55 56 56 56 55 55 55 53 55 52 48 47 44 44 44 42 43 46 49 49 48 47 44 44 36 31 32 36 38 40 40 41 41 42 42 39 37 38 42 44 41 41 41
59 60 61 60 59 59 58 57 56 55 51 47 44 42 42 42 41 43 48 47 48 44 42 41 38 34 31 33 35 35 36 37 38 37 34 32 31 35 40 40 34 33 31
61 62 63 64 64 63 61 57 54 54 52 47 43 41 40 39 41 43 45 46 45 42 47 44 42 36 30 33 32 32 31 32 33 29 25 28 30 26 27 35 33 31 30
67 68 66 65 62 62 60 58 56 53 48 48 47 43 40 38 38 42 46 44 41 37 34 29 31 32 30 32 32 28 23 27 28 23 24 25 25 26 23 26 33 32 34
65 66 66 66 63 59 54 53 52 50 47 46 45 44 41 40 42 45 45 41 37 34 29 29 31 28 29 29 28 23 25 26 23 17 16 19 17 16 21 34 39 41 32
64 61 61 58 54 53 49 48 47 45 42 43 43 41 41 43 43 44 44 36 34 33 30 29 32 32 27 26 20 23 22 19 18 14 17 16 17 17 25 33 26 32 34
56 54 55 54 53 47 41 39 31 37 39 39 38 37 39 41 38 36 32 30 31 29 23 21 24 27 26 26 24 22 21 20 17 17 14 14 15 19 18 19 23 30 31
53 51 40 35 28 26 34 36 35 39 37 35 37 38 34 34 35 32 27 25 24 24 19 20 22 26 26 25 25 25 22 21 22 29 19 16 13 11 13 17 19 19 18
42 37 38 31 27 29 31 35 35 34 35 35 34 31 33 31 26 18 23 23 21 19 17 18 20 22 24 28 23 22 22 24 20 19 20 17 16 16 18 17 21 23 24
40 36 39 31 28 28 31 32 32 31 32 28 31 28 21 19 15 15 16 17 17 19 17 18 22 25 27 23 23 21 19 22 19 21 20 17 18 20 22 23 26 24 24
38 33 33 27 26 27 24 23 33 29 33 30 21 18 19 15 15 15 16 15 14 19 19 16 16 18 20 21 22 23 23 23 28 26 21 15 20 21 22 22 22 23 24
36 36 29 30 27 25 24 22 23 28 25 20 18 19 13 9 10 11 14 17 15 13 16 17 17 20 21 20 23 22 25 21 26 28 24 23 23 20 21 22 23 23 23
34 34 29 29 28 27 24 24 29 24 17 20 10 9 6 5 6 6 6 12 15 15 15 17 18 22 23 24 25 23 22 24 26 24 23 23 22 22 22 22 22 22 21
31 31 27 26 28 24 23 24 26 27 17 10 17 4 3 5 3 5 8 11 13 14 15 17 18 18 19 20 24 22 24 25 26 24 24 24 24 23 24 25 24 22 20
29 26 24 24 25 22 24 24 24 22 22 14 10 4 4 4 8 12 12 15 17 16 16 17 19 19 20 21 23 25 27 27 26 26 27 27 27 26 26 26 24 22 21
25 25 25 25 26 25 25 25 23 21 19 17 14 8 5 6 8 10 10 14 20 19 19 19 20 22 22 23 22 23 25 27 30 32 31 31 31 29 29 28 26 26 26
28 27 27 27 26 27 26 25 24 23 20 18 16 14 11 11 12 11 9 7 13 20 24 24 23 24 26 25 26 25 25 27 28 30 34 35 34 33 32 32 32 31 30
31 31 29 29 28 29 29 28 27 25 22 19 19 17 14 10 7 11 12 13 12 16 22 26 26 27 28 28 28 27 27 28 30 32 32 34 36 37 36 35 34 34 32
31 31 32 31 29 29 28 28 27 26 24 23 21 19 17 17 15 15 16 16 14 16 18 20 26 27 28 29 31 32 31 31 31 32 33 36 36 37 38 38 38 37 35
36 33 32 31 30 30 30 30 30 29 29 27 25 24 22 20 20 20 20 19 17 16 20 21 22 20 23 30 34 34 35 36 36 37 38 39 38 40 40 38 38 39 40
36 37 36 36 36 35 34 33 33 33 32 31 31 30 28 26 26 24 24 24 24 22 20 22 21 23 33 35 35 39 39 40 40 39 41 43 44 44 45 45 46 47 47
Wind_Direction
304 307 297 297 298 286 291 304 302 287 262 254 267 278 287 291 294 300 303 302 299 294 290 286 281 275 272 268 266 265 264 260 259 250 254 258 259 259 261 264 264 265 271
308 308 298 301 300 304 301 300 301 297 297 293 284 272 282 290 290 300 294 299 298 293 288 286 279 275 271 268 264 263 261 260 257 250 249 255 258 258 258 261 262 264 267
307 300 292 297 299 297 294 299 297 287 284 282 269 266 289 292 290 296 294 296 295 291 291 288 285 274 265 263 263 260 260 259 256 253 246 249 253 255 260 261 263 261 261
303 301 300 298 300 301 300 298 297 293 301 327 292 305 278 289 290 289 291 289 288 291 295 292 289 270 251 256 260 261 258 256 255 254 249 246 252 254 256 260 262 262 263
299 297 296 295 297 298 300 299 288 292 303 277 304 298 282 287 282 285 285 285 287 289 290 293 284 267 259 258 258 257 256 256 253 252 253 252 254 256 256 257 258 261 263
301 299 298 297 298 298 297 298 297 297 296 292 294 289 288 286 283 283 282 285 288 291 286 284 281 271 266 259 260 258 257 256 254 252 253 255 256 256 255 257 259 258 253
301 301 299 298 296 295 295 295 295 296 295 293 291 290 286 283 281 281 283 287 290 288 284 277 275 268 265 261 258 256 257 256 254 251 253 256 256 254 254 253 252 247 232
301 299 298 296 294 293 293 292 293 294 294 294 291 288 285 287 281 281 283 287 289 289 284 270 263 260 262 260 255 255 256 253 249 249 254 256 251 246 253 245 236 228 216
301 300 297 294 294 294 293 292 291 291 294 296 297 293 292 287 283 284 285 286 287 284 280 266 248 254 257 257 256 253 250 247 248 249 255 251 242 240 236 211 219 231 202
307 306 302 299 296 295 293 294 295 295 296 296 293 293 291 289 285 284 284 285 285 274 274 268 253 250 253 249 252 246 237 246 251 248 260 258 252 244 221 226 228 225 227
310 309 301 295 294 292 291 293 293 292 290 292 293 291 289 287 288 286 284 276 276 266 271 265 254 247 241 241 236 240 242 241 235 247 247 249 241 223 215 220 219 221 213
312 309 311 294 289 292 291 294 293 291 293 291 289 290 288 287 287 287 279 270 272 262 264 263 247 239 226 233 233 233 232 235 249 234 231 224 213 220 202 187 190 191 195
317 320 326 327 317 300 292 285 300 301 298 296 295 292 290 286 290 284 274 266 265 256 249 251 247 225 228 229 230 231 232 235 250 216 230 215 212 210 202 200 188 183 182
327 330 334 323 319 310 302 301 303 300 300 300 298 298 297 292 286 270 258 266 259 253 242 245 243 227 230 222 221 226 222 229 242 230 229 225 221 209 201 198 199 195 193
322 324 323 327 323 312 308 305 304 306 309 302 301 300 295 287 286 273 264 266 260 241 243 245 248 243 211 209 213 217 224 224 229 231 220 218 217 212 209 208 207 209 205
325 325 323 327 319 318 315 314 316 316 317 314 307 293 297 285 270 256 257 253 250 243 238 239 221 231 203 207 209 208 216 226 223 220 215 224 223 212 213 213 210 208 210
324 325 322 324 327 323 317 318 328 325 324 321 314 306 274 272 275 269 248 238 234 240 232 233 220 220 218 219 218 213 237 226 217 201 226 222 218 214 209 211 213 214 211
324 328 324 327 330 320 321 330 330 326 334 328 316 325 275 269 280 285 255 235 237 233 231 226 226 224 220 216 219 221 226 224 220 227 218 215 216 215 212 213 212 210 207
323 324 326 332 334 331 334 338 335 341 332 327 345 256 286 306 272 275 262 245 240 239 228 223 223 223 227 229 225 227 223 223 219 219 218 218 216 214 212 206 205 209 215
329 330 330 331 335 332 334 341 345 343 350 348 342 352 284 296 297 266 257 247 243 241 229 227 227 227 222 227 228 226 221 219 217 221 221 219 219 218 215 212 212 216 222
331 334 334 335 334 331 331 334 335 343 344 350 340 319 291 264 306 311 300 261 241 240 239 238 239 236 234 232 231 233 230 227 223 223 222 221 221 221 221 221 223 226 231
324 323 323 326 329 330 333 335 334 337 334 336 339 329 324 310 309 295 294 291 244 239 246 242 243 247 242 238 236 235 234 228 227 228 227 227 226 223 223 226 228 232 236
319 318 318 318 318 318 318 318 318 322 327 330 323 320 320 314 283 286 276 284 268 258 258 250 246 245 250 247 242 237 241 243 235 229 227 228 229 229 229 229 230 233 237
314 314 313 314 316 316 316 315 316 314 314 314 313 310 308 302 294 289 285 280 277 253 255 251 252 253 252 253 248 245 239 236 237 239 237 234 233 233 236 238 239 239 239
314 316 315 315 314 314 314 312 310 308 307 307 304 302 301 299 296 293 290 287 280 275 263 253 254 258 260 253 254 247 246 241 237 238 238 239 240 241 241 240 242 245 245
311 311 311 311 311 310 308 307 305 304 303 302 301 299 296 293 289 286 284 283 282 277 273 270 255 242 248 251 243 250 244 248 243 241 241 242 241 240 243 243 242 242 243